Regional Weather Roundup
Issued by NWS

Home | Current Version | Previous Version | Text Only | Print | Product List | Glossary On
Versions: 1 2 3 4 5 6 7 8 9 10 11 12 13 14 15 16 17 18 19 20 21 22 23 24 25 26 27 28 29 30 31 32 33 34 35 36 37 38 39 40 41 42 43 44 45 46 47 48 49 50
000
ASUS43 KMPX 181701
RWRMN
WEATHER ROUNDUP FOR MINNESOTA
NATIONAL WEATHER SERVICE TWIN CITIES/CHANHASSEN MN
1200 PM CDT SAT APR 18 2015


NOTE: "FAIR" INDICATES FEW OR NO CLOUDS BELOW 12,000 FEET WITH NO
SIGNIFICANT WEATHER AND/OR OBSTRUCTIONS TO VISIBILITY. N/A MEANS
CURRENT SKY AND/OR WEATHER CONDITIONS ARE NOT AVAILABLE.

MNZ060>063-068>070-181800-
   Twin Cities Metro

CITY           SKY/WX    TMP DP  RH WIND       PRES   REMARKS
TWIN CITIES    MOSUNNY   66  33  29 E10       30.06F
ST PAUL        SUNNY     66  33  29 E12       30.07F
CRYSTAL        SUNNY     66  32  28 E12       30.06F
BLAINE         MOSUNNY   64  32  29 E14       30.07F
LAKEVILLE      MOSUNNY   64  36  34 E12       30.04F
EDEN PRAIRIE   SUNNY     66  34  30 E10       30.04F
SOUTH ST PAUL  SUNNY     66  32  28 E9G16     30.06F
LAKE ELMO      FAIR      64  34  32 E9        30.08F
$$
MNZ001>005-007-008-013>017-022>024-027-028-181800-
   Northwest Minnesota

CITY           SKY/WX    TMP DP  RH WIND       PRES   REMARKS
BEMIDJI        SUNNY     54  30  39 SE10      30.11F
HALLOCK        SUNNY     57  25  28 SE15      30.07F
ROSEAU         SUNNY     57  23  26 SE15G23   30.11F
WARROAD        SUNNY     48  32  53 E9        30.13F
THIEF RVR FALL SUNNY     55  30  38 E12       30.08F
CROOKSTON      SUNNY     61  30  31 SE8       30.07F
FOSSTON        SUNNY     57  30  35 E9        30.08F
DETROIT LAKES  SUNNY     59  32  36 SE12      30.07F
MOORHEAD       MOSUNNY   64  28  25 SE9       30.04F
PARK RAPIDS    SUNNY     58  29  33 SE13      30.08F
MAHNOMEN       FAIR      57  30  34 SE9       30.07F
$$
MNZ006-009>011-018-025>026-181800-
   North Central Minnesota

CITY           SKY/WX    TMP DP  RH WIND       PRES   REMARKS
BAUDETTE       SUNNY     55  23  28 SE14      30.14F
FLAG ISLAND    SUNNY     43  34  70 S8        30.15F
INTL FALLS     SUNNY     54  21  27 SE14G22   30.17F
WASKISH        SUNNY     57  28  33 E9G22     30.13F
BIG FORK       SUNNY     57  25  28 SE13G22   30.15F
LONGVILLE      MOSUNNY   55  27  33 SE12      30.11F
GRAND RAPIDS   SUNNY     52  27  37 E12G20    30.15F
ORR            SUNNY     54  21  28 E5        30.15F
COOK           SUNNY     55  25  30 SE7       30.17F
WALKER         FAIR      51  32  49 E7        30.12F
$$
MNZ012-019>021-037-181800-
   Northeast Minnesota

CITY           SKY/WX    TMP DP  RH WIND       PRES   REMARKS
DULUTH         SUNNY     48  32  53 E18G25    30.19F
ELY            SUNNY     52  19  28 SE13G18   30.20F
HIBBING        SUNNY     55  25  31 SE14G23   30.16F
EVELETH        SUNNY     52  27  37 SE9G21    30.19F
DULUTH HARBOR  SUNNY     41  36  81 NE24      30.22F
TWO HARBORS    SUNNY     48  36  61 E23G29    30.21F
SILVER BAY     SUNNY     46  34  61 NE12G21   30.23F
GRAND MARAIS     N/A     42  32  67 NE8       30.30S
G MARAIS ARPRT SUNNY     43  27  52 E7        30.26S
$$
MNZ029>031-032-039>041-046>048-054>057-064-181800-
   West Central Minnesota

CITY           SKY/WX    TMP DP  RH WIND       PRES   REMARKS
FERGUS FALLS   SUNNY     64  23  20 SE13      30.04F
WHEATON        MOSUNNY   64  30  27 SE12G18   30.02F
MORRIS         MOSUNNY   70  30  23 SE14G23   30.01F
ALEXANDRIA     SUNNY     62  31  31 E15       30.05F
ELBOW LAKE     FAIR      63  32  31 E12       30.03F
WADENA         SUNNY     57  32  38 CALM      30.07F
GLENWOOD       SUNNY     64  30  27 E18G26    30.05S
APPLETON       MOSUNNY   72  27  18 SE18      29.99F HAZE
BENSON         SUNNY     68  25  19 SE14      30.02F
ORTONVILLE     MOSUNNY   66  30  26 E10       30.00F
MADISON        MOSUNNY   70  23  17 SE17      29.99F
WILLMAR        FAIR      68  34  28 E14G20    30.03F
$$
MNZ033>034-036-042>043-049>051-058-059-181800-
   Central Minnesota

CITY           SKY/WX    TMP DP  RH WIND       PRES   REMARKS
ST CLOUD       SUNNY     61  31  32 E10       30.07F
SAUK CENTRE    FAIR      61  33  34 E13G18    30.06F
PAYNESVILLE    SUNNY     61  32  33 NE12      30.05F
AITKIN         MOSUNNY   59  30  33 E6        30.11F
PINE RIVER     MOSUNNY   54  34  47 E13       30.14F
BRAINERD       MOSUNNY   56  30  37 E9        30.11F
STAPLES        SUNNY     55  28  35 E9        30.08F
LONG PRAIRIE   FAIR      59  32  36 E12       30.07F
LITTLE FALLS   SUNNY     59  30  33 E8        30.08F
LITCHFIELD     SUNNY     66  32  28 E10G16    30.04F
BUFFALO        SUNNY     64  31  29 NE13G20   30.07F
MAPLE LAKE     SUNNY     64  35  34 E10       30.07F
$$
MNZ037-044-045-052-053-181800-
   East Central Minnesota

CITY           SKY/WX    TMP DP  RH WIND       PRES   REMARKS
PRINCETON      SUNNY     63  34  34 E9G16     30.09F
MORA           MOSUNNY   57  32  38 NE7       30.13S
CAMBRIDGE      SUNNY     64  41  42 E9        30.08F
RUSH CITY      SUNNY     60  34  37 E7        30.11S
MOOSE LAKE     SUNNY     52  32  46 NE3       30.13F
HINCKLEY       FAIR      57  32  38 E10       30.13S
CLOQUET        SUNNY     48  30  49 E14G20    30.17F
MCGREGOR       MOSUNNY   55  32  41 E15       30.14F
$$
MNZ071>073-080-081-089-090-097-098-181800-
   Southwest Minnesota

CITY           SKY/WX    TMP DP  RH WIND       PRES   REMARKS
MONTEVIDEO     MOSUNNY   72  30  21 SE18      30.01F
GRANITE FALLS  MOSUNNY   70  30  22 E12G17    30.01F
CANBY          MOSUNNY   69  26  20 E14G22    29.99F
MARSHALL       MOSUNNY   68  28  22 SE17      29.98F
REDWOOD FALLS  MOSUNNY   68  31  25 E13       30.00F
OLIVIA         MOSUNNY   68  32  26 SE14      30.00F
PIPESTONE      CLOUDY    68  28  22 SE17      29.96F
WINDOM         MOSUNNY   72  30  21 E18       29.99S
WORTHINGTON    CLOUDY    66  34  30 E24       29.96F
JACKSON        PTSUNNY   70  30  23 E21       29.98F
TRACY          MOSUNNY   71  33  25 E13G18    29.98F
SLAYTON        PTSUNNY   71  30  22 E16G25    29.98F
$$
MNZ065>067-074>077-082>085-091>093-181800-
   South Central Minnesota

CITY           SKY/WX    TMP DP  RH WIND       PRES   REMARKS
MANKATO        MOSUNNY   70  34  26 NE5       30.01F
NEW ULM        MOSUNNY   68  30  24 E13       30.00F
ST JAMES       MOSUNNY   73  25  16 SE17      29.99F
FAIRMONT       MOSUNNY   70  27  19 SE18      29.98F
GLENCOE        MOSUNNY   68  36  31 E14G20    30.03F
FARIBAULT      MOSUNNY   70  34  26 E16       30.03F
OWATONNA       MOSUNNY   70  30  23 E16G23    30.01F
ALBERT LEA     PTSUNNY   72  34  25 SE15G21   30.00F
$$
MNZ078>079-086>088-094>096-181800-
   Southeast Minnesota

CITY           SKY/WX    TMP DP  RH WIND       PRES   REMARKS
ROCHESTER      MOSUNNY   67  37  33 E14       30.04F
RED WING       MOSUNNY   68  30  24 SE12      30.05F
STANTON        MOSUNNY   69  32  25 E13G18    30.03F
DODGE CENTER   MOSUNNY   70  34  26 E17G23    30.03F
WINONA         MOSUNNY   70  36  28 SE12      30.06F
AUSTIN         PTSUNNY   70  39  32 SE15G21   30.01F
PRESTON        SUNNY     66  35  31 E14       30.04F
$$
ABBREVIATIONS USED IN REMARKS
   TC - TEMPERATURES IN CELSIUS
  WCI - WIND CHILL INDEX
   HX - HEAT INDEX
  VSB - VISIBILITY
$$



USA.gov is the U.S. government's official web portal to all federal, state and local government web resources and services.